Wind_Speed
14 15 15 15 16 17 18 17 17 15 13 13 13 13 14 14 14 14 15 17 20 22 23 22 21 21 20 19 19 18 18 18 18 17 17 16 16 16 16 17 17 18 19 20 20 20 20 21 20 20 20 19 19 18 18 17 16 15 15 14 14 14 14 14 14 14 14 13 13 14 14 14 14 14 15 15 16 17 17 17 17 17 17 17 18
16 16 16 16 17 18 18 18 17 16 15 14 14 14 13 13 14 14 13 14 16 18 19 20 20 21 20 19 19 19 19 19 19 19 18 18 17 17 17 17 17 17 18 19 19 20 20 20 20 20 19 19 19 18 18 17 17 16 15 15 14 14 15 15 14 14 14 14 14 15 15 16 16 16 17 17 17 18 19 19 19 19 19 19 20
18 18 17 17 18 19 19 18 16 15 15 16 15 15 14 13 14 14 14 14 15 17 18 20 21 21 21 21 20 20 20 20 20 20 20 19 18 17 17 17 17 18 18 18 18 18 18 18 18 18 18 18 18 17 17 16 16 15 15 15 15 15 15 15 15 15 15 16 16 16 17 18 19 19 20 20 20 20 21 21 22 22 22 22 22
20 20 19 19 18 18 18 17 16 15 16 16 16 16 15 15 15 15 15 16 16 16 18 20 21 23 24 24 24 22 21 21 21 21 21 21 20 20 19 19 19 18 19 18 18 18 18 17 17 17 18 17 17 17 16 16 16 16 16 16 16 16 16 15 15 15 16 16 17 17 18 19 20 21 22 22 23 24 24 24 25 25 25 25 25
22 22 22 21 19 18 17 17 16 16 16 16 16 17 17 17 17 17 17 18 18 19 19 21 22 23 24 25 25 23 21 21 21 22 23 23 22 22 21 21 20 20 20 20 20 20 19 19 19 18 19 19 18 18 17 17 17 17 16 16 16 16 16 16 16 16 17 17 18 19 19 20 21 22 23 23 24 25 26 26 27 27 28 28 28
22 22 22 22 21 19 18 17 17 17 17 17 17 17 17 18 18 18 19 20 20 21 22 23 23 24 25 26 25 24 21 21 21 22 24 24 24 24 23 23 23 22 22 22 22 23 23 22 22 21 21 21 21 21 21 20 20 19 18 17 16 16 16 17 18 19 20 20 22 23 24 24 25 25 25 26 26 27 27 27 28 28 29 29 29
23 23 23 23 23 22 20 18 17 17 18 18 18 18 18 18 19 19 20 20 21 23 24 25 25 26 27 27 26 24 22 22 22 22 24 25 25 24 24 24 25 25 25 25 25 25 26 26 26 25 24 24 24 24 24 24 23 22 22 21 20 19 20 21 22 23 24 25 26 27 28 28 28 29 29 30 31 32 32 32 31 31 31 31 31
24 24 24 23 23 23 23 21 19 19 19 19 20 20 20 20 21 21 22 23 24 26 27 27 28 29 30 29 27 26 25 24 23 23 24 25 25 25 24 25 26 27 28 28 28 28 29 29 29 28 27 26 26 27 27 27 26 26 25 25 24 24 24 24 26 27 28 28 29 29 30 30 30 31 32 33 35 36 36 36 37 36 36 36 36
27 27 26 25 24 24 25 25 24 23 22 22 23 23 24 24 25 25 26 27 28 28 29 29 29 30 32 30 29 29 28 27 27 25 25 25 25 24 25 27 28 29 30 31 32 32 32 32 31 30 30 29 29 29 29 29 29 29 29 29 28 27 27 27 28 28 29 30 30 31 32 33 32 32 34 36 38 39 39 40 40 41 41 42 43
30 30 29 28 28 27 27 27 28 28 28 28 27 28 28 29 29 29 29 30 30 30 30 30 29 29 31 32 30 30 30 30 29 26 24 24 25 26 28 29 30 31 32 32 33 33 33 32 32 32 32 32 32 31 30 30 31 31 31 31 31 31 30 30 30 30 31 32 33 33 34 35 35 35 35 37 40 43 43 43 43 44 44 45 47
31 32 32 31 31 32 32 32 32 32 32 32 32 33 32 32 32 32 32 32 32 32 30 29 28 29 32 33 32 31 31 31 30 27 25 26 30 32 31 30 31 32 33 34 34 34 35 35 35 35 36 36 34 33 32 32 32 32 32 33 33 33 33 33 33 33 33 34 35 36 36 37 37 37 37 39 41 43 45 45 45 45 46 47 48
34 34 35 35 35 35 36 36 36 36 35 35 36 37 37 36 36 36 35 35 35 35 33 31 31 32 34 35 35 33 32 32 31 30 27 28 31 33 31 29 29 29 30 33 34 34 35 34 32 32 33 34 34 34 35 35 35 35 35 35 36 36 36 37 37 36 36 36 37 37 38 39 39 39 39 40 42 44 46 47 47 47 48 48 49
38 38 38 38 38 37 38 38 38 39 39 38 39 39 40 40 40 40 40 39 39 39 39 37 36 36 37 37 36 35 35 35 34 34 32 31 33 34 34 33 32 31 30 32 33 34 34 33 32 32 32 34 34 35 37 38 39 40 40 40 39 39 39 39 39 38 38 37 38 38 38 39 41 40 41 42 43 45 47 48 48 49 50 50 51
42 42 42 41 41 40 40 41 41 41 41 40 40 39 39 39 40 41 42 42 43 43 42 41 40 39 39 39 39 39 40 40 39 37 37 38 39 39 38 37 35 35 34 34 35 36 36 36 36 36 36 36 37 38 39 40 42 43 43 43 42 41 40 40 40 39 39 39 40 40 40 41 42 43 43 44 45 46 48 49 50 51 52 52 53
46 46 45 44 43 44 44 44 44 43 42 42 41 40 39 38 39 40 41 43 44 45 45 44 43 42 41 40 41 43 44 44 44 42 41 40 41 41 40 38 35 35 34 34 35 36 36 36 35 34 34 34 35 36 36 37 39 40 40 41 42 42 42 43 43 43 43 43 43 43 43 43 44 45 45 46 46 47 49 50 51 52 53 53 54
49 48 48 47 47 47 47 46 46 45 44 43 43 43 42 41 40 40 41 42 45 46 47 46 44 44 43 41 42 44 45 45 46 46 44 43 42 41 41 39 36 35 34 33 33 33 33 33 33 33 33 33 33 34 34 35 36 37 39 40 41 42 42 43 43 44 44 44 44 45 45 45 45 46 46 47 48 49 50 51 52 53 53 54 55
51 51 50 50 49 49 48 48 48 47 47 47 46 46 46 45 44 43 42 43 44 46 48 48 47 46 45 45 44 46 48 48 48 48 47 45 44 42 41 39 38 37 36 35 33 33 32 32 32 33 34 35 36 36 37 37 38 38 39 40 40 40 40 40 40 41 42 43 43 44 45 46 47 48 48 49 49 50 51 52 53 53 54 54 54
55 55 54 53 52 51 50 50 50 50 50 51 50 50 50 49 49 48 47 46 46 46 47 48 48 48 48 47 46 45 47 49 49 50 49 47 44 42 41 41 41 40 39 37 36 35 36 36 36 36 36 37 38 39 39 40 40 40 40 41 41 41 41 41 42 42 43 44 45 46 47 48 49 49 49 50 50 51 51 52 53 53 54 54 54
57 57 57 56 56 55 55 54 54 54 54 55 55 55 54 54 53 52 52 51 49 47 46 47 48 48 48 48 47 47 47 46 46 46 46 45 44 44 44 45 45 44 42 41 40 40 40 40 39 39 39 40 40 40 41 41 42 42 42 43 43 43 43 44 45 45 46 47 48 49 49 50 50 50 50 50 50 51 51 52 53 53 54 54 54
59 59 59 60 60 59 59 59 58 58 58 58 58 58 58 57 56 55 54 53 51 49 47 46 46 47 47 46 47 47 46 45 43 41 41 43 44 45 46 46 45 44 43 43 43 43 43 42 41 40 40 41 41 41 42 42 42 43 43 43 42 42 43 45 46 47 48 49 50 50 51 51 50 50 51 50 50 51 51 52 53 53 54 54 55
62 62 63 63 63 63 63 62 61 61 60 59 59 58 57 55 53 52 51 51 51 50 49 48 47 46 46 47 48 47 46 45 42 39 40 42 42 40 39 40 42 43 43 43 43 42 41 41 41 41 42 42 43 43 43 43 44 44 44 44 44 44 45 47 48 48 49 50 50 51 51 51 51 50 51 51 51 51 51 52 53 53 54 55 55
64 65 65 65 65 65 64 64 63 62 61 60 58 57 55 54 52 50 48 47 47 48 48 48 47 44 42 44 46 47 47 48 47 44 43 44 44 42 41 42 43 42 41 42 41 40 41 42 43 43 44 44 45 45 45 45 45 45 46 46 47 47 49 49 49 49 50 50 50 51 51 51 51 51 51 51 51 51 51 52 53 53 54 54 55
65 65 65 65 65 65 64 63 62 61 60 59 58 56 55 53 51 50 48 47 46 45 46 47 47 45 42 42 43 44 46 50 53 54 53 52 52 51 49 48 46 43 41 42 43 43 44 45 45 45 45 46 46 46 45 46 46 46 47 48 48 49 51 52 50 50 50 50 50 50 51 51 51 51 51 52 52 52 52 52 52 53 53 53 54
64 64 64 64 64 64 63 62 61 60 59 58 57 56 55 54 52 50 48 47 46 44 45 46 48 49 48 45 43 42 43 47 51 53 55 56 55 52 49 46 45 44 45 46 46 46 47 47 47 47 47 47 46 46 46 47 46 47 48 48 50 52 53 53 51 51 51 51 51 51 51 51 51 51 51 51 51 51 51 51 51 51 52 52 53
62 61 61 60 60 60 60 61 60 60 59 58 58 58 57 55 55 53 51 50 49 47 47 47 48 51 51 48 45 41 40 43 46 46 45 48 49 48 47 46 47 47 48 48 47 48 48 48 48 48 48 47 48 48 47 46 46 48 49 51 53 54 54 53 52 51 51 51 51 51 51 51 50 50 50 50 49 49 49 49 49 50 50 51 52
58 58 59 59 59 59 59 60 60 60 60 60 59 59 58 57 57 55 54 53 52 52 52 51 49 49 50 50 51 50 47 47 47 45 43 43 44 45 46 47 48 48 49 50 50 50 49 49 48 49 49 48 48 46 45 47 49 51 53 54 54 54 54 53 52 52 51 51 51 50 50 49 49 48 47 47 47 47 47 48 48 49 50 51 51
59 59 60 60 61 61 62 62 62 63 63 63 62 61 60 59 58 57 55 54 53 53 53 52 51 51 50 50 52 56 58 58 58 57 54 51 49 48 48 48 50 52 53 53 52 51 50 49 49 49 49 47 46 46 48 51 53 53 53 54 54 54 53 53 52 51 50 50 49 47 46 45 44 44 44 44 45 46 46 46 47 48 49 50 51
59 60 61 62 62 63 63 63 63 63 63 63 64 64 63 62 60 59 58 57 55 54 52 51 50 51 52 52 52 54 57 60 62 63 61 58 56 54 53 52 52 52 53 52 51 50 49 48 48 49 48 47 48 51 53 54 54 54 54 54 54 53 53 52 50 49 47 45 44 42 41 40 41 41 41 42 43 44 45 46 47 48 49 50 50
57 58 59 60 61 61 62 62 62 62 62 63 63 64 64 63 62 62 62 60 58 57 55 54 52 51 51 53 54 54 54 56 58 59 59 58 56 53 50 48 48 48 48 48 47 47 47 48 48 48 48 49 51 53 54 54 54 55 54 53 52 52 51 49 46 44 41 39 38 37 37 37 38 39 40 41 42 43 44 45 46 47 48 49 50
57 58 59 60 60 61 62 62 63 63 63 63 64 64 64 62 62 63 62 60 59 58 56 55 54 53 52 53 53 53 53 53 54 54 54 54 53 51 48 46 46 47 47 47 46 47 47 48 48 49 50 51 52 53 54 55 54 53 51 51 50 49 46 43 40 38 36 34 34 34 35 36 37 38 38 39 40 42 43 45 46 47 48 49 50
58 59 60 61 62 63 64 64 65 65 65 65 66 66 65 64 62 63 61 59 58 56 53 51 51 51 51 51 51 51 50 50 50 50 51 51 51 49 48 48 48 49 49 48 47 48 49 49 50 51 51 51 51 53 54 53 50 49 48 47 45 43 40 38 35 33 32 32 33 34 34 34 35 35 36 37 39 41 43 44 46 47 48 47 45
53 53 55 56 58 60 62 63 64 65 65 65 66 67 67 66 65 64 62 60 58 57 54 52 51 49 49 50 50 49 48 49 49 49 48 48 47 46 45 46 46 47 48 49 49 49 50 51 51 50 49 49 52 53 51 47 46 45 44 42 39 37 35 33 31 30 31 32 32 32 31 30 31 33 35 38 40 41 43 45 45 45 42 38 34
42 43 44 45 46 48 50 54 57 59 61 62 62 63 65 65 65 66 64 62 61 59 57 56 56 54 53 52 49 48 49 49 49 48 48 48 49 48 46 46 46 45 46 49 50 50 50 50 49 47 47 50 51 49 45 44 43 42 39 36 34 32 31 30 30 30 30 29 27 26 26 27 30 33 36 39 40 42 44 43 41 37 32 28 26
36 37 37 37 37 37 38 40 42 46 49 52 54 55 56 58 60 62 63 63 62 61 60 59 59 59 59 57 54 52 52 51 50 49 49 50 50 47 44 45 46 46 46 49 50 50 49 48 46 47 49 50 47 44 43 42 40 37 34 33 31 30 29 29 29 28 26 23 21 22 25 28 31 34 37 39 41 42 41 36 31 27 24 22 22
32 32 32 32 32 32 32 33 33 34 36 40 43 45 47 49 51 53 56 59 60 61 61 61 60 60 61 61 60 60 58 55 52 49 46 46 45 43 41 42 44 45 46 48 48 48 47 46 48 50 50 46 43 41 40 38 35 33 32 30 29 29 29 28 26 22 19 18 19 22 25 29 32 35 38 40 40 37 32 26 22 20 19 18 18
25 25 25 25 26 26 28 29 30 31 31 33 37 40 41 42 44 46 48 51 54 57 59 60 61 61 61 61 62 63 61 60 58 52 46 44 47 47 44 42 42 43 45 46 45 46 48 50 52 50 46 42 40 39 37 34 32 31 29 28 28 28 26 23 19 16 16 17 20 23 26 29 33 36 38 38 34 28 22 19 17 16 16 16 18
22 23 24 25 26 27 28 29 30 31 31 32 35 38 39 38 38 40 42 44 46 50 53 55 58 60 61 61 61 62 61 61 61 56 50 48 50 52 51 48 45 46 47 48 50 52 54 54 52 47 42 39 39 37 34 32 30 29 28 27 27 25 21 17 15 14 15 17 20 22 25 29 33 36 36 32 24 19 16 15 15 16 16 17 18
22 23 24 26 27 29 31 32 33 32 32 31 33 35 37 37 36 36 37 38 39 42 45 49 52 55 58 59 60 60 59 59 59 57 54 53 54 55 56 57 56 55 56 57 57 56 54 51 47 43 39 38 37 34 32 30 28 27 26 25 23 20 16 14 13 13 15 17 19 21 24 27 31 33 30 24 17 14 14 15 15 16 17 17 18
21 22 24 27 29 31 33 33 33 33 32 31 31 32 34 35 34 33 32 32 33 35 38 41 45 48 52 54 57 58 58 57 56 55 55 55 54 54 56 57 56 56 57 56 54 52 49 47 43 39 36 36 34 32 30 29 27 26 24 22 19 16 15 13 13 13 14 16 18 20 22 24 28 28 23 18 14 14 14 15 15 15 16 17 17
20 23 26 28 30 30 29 28 26 25 24 25 27 30 31 31 31 31 30 29 29 30 32 34 37 41 44 47 51 54 55 53 51 48 46 45 46 47 47 47 47 48 49 48 47 46 44 41 38 35 34 33 31 30 28 27 26 24 21 18 17 16 14 13 13 13 14 15 16 18 20 22 25 25 21 15 12 13 14 14 14 13 14 16 16
21 24 26 27 28 26 22 19 17 15 16 18 21 25 27 27 28 29 31 30 29 29 30 31 32 35 38 40 43 45 46 47 49 48 45 42 42 42 42 42 43 43 42 41 42 43 41 37 34 33 33 31 29 28 27 26 23 21 19 18 17 16 14 13 13 12 13 13 15 17 19 20 21 24 22 17 12 12 12 12 12 12 14 15 15
20 22 24 26 26 22 18 16 14 13 13 13 15 19 23 24 25 26 29 30 31 31 30 29 30 32 34 35 34 34 36 39 44 47 48 46 45 44 44 44 43 42 41 41 42 41 39 36 34 33 31 29 28 27 26 23 21 19 18 18 18 16 15 14 13 12 12 12 13 15 17 18 19 21 23 22 19 15 12 11 12 12 13 14 14
19 21 23 25 26 23 17 14 13 11 11 10 10 13 17 21 23 25 26 28 31 31 30 30 30 32 35 35 33 33 35 38 40 43 46 46 46 45 45 44 44 43 43 43 42 39 36 34 33 32 30 29 27 25 23 21 19 19 19 19 18 17 15 14 13 11 11 12 13 14 16 18 18 19 21 22 23 21 18 14 12 11 12 13 13
18 19 21 23 24 24 18 13 11 10 10 11 10 11 13 16 19 22 23 26 29 30 30 30 29 32 38 40 34 30 33 38 39 39 40 42 43 44 43 44 44 45 44 43 41 39 36 34 33 31 29 27 25 23 21 20 20 20 20 19 18 17 16 15 13 12 11 11 12 14 15 16 17 18 19 20 21 22 22 20 17 14 13 13 14
16 18 20 21 22 23 20 14 10 8 8 9 11 11 12 13 15 17 20 23 27 29 31 30 29 31 38 40 32 25 27 32 34 36 38 40 41 42 43 44 45 45 44 44 43 41 38 34 31 29 27 24 22 21 20 21 21 21 20 19 18 17 17 16 14 12 11 11 12 14 15 15 16 17 18 19 19 20 21 22 22 20 17 15 15
13 16 19 20 21 22 22 18 13 9 7 8 10 11 12 13 13 14 17 21 25 28 30 30 31 34 39 38 30 23 24 27 30 33 36 39 41 42 43 45 45 45 44 42 40 36 33 30 28 26 24 22 21 21 21 21 21 21 20 19 18 18 17 16 14 12 11 11 13 14 15 16 16 16 17 18 19 19 19 20 22 22 21 19 18
12 14 18 20 19 20 22 23 20 14 7 2 5 7 10 12 13 15 17 19 22 26 28 30 32 36 36 32 27 25 25 26 26 28 32 35 38 41 43 44 44 42 39 34 29 27 27 26 24 22 22 22 22 22 22 22 21 20 20 19 19 18 17 16 15 12 11 12 13 14 15 16 16 16 17 18 18 18 18 19 20 21 23 23 21
12 13 15 17 18 18 20 23 23 18 13 11 10 8 5 3 5 9 14 17 20 24 26 28 32 34 30 25 23 23 22 21 22 24 27 31 35 38 39 40 39 36 30 25 24 24 24 23 22 22 22 23 23 23 22 21 20 20 20 20 19 18 17 16 15 13 12 13 13 14 15 16 16 17 17 17 18 18 18 18 18 20 21 23 24
13 13 14 15 15 16 18 21 21 19 17 17 18 17 15 12 9 6 6 10 17 22 24 26 31 33 28 21 18 17 16 16 19 22 26 30 34 34 34 32 30 26 23 22 23 23 22 22 23 23 24 24 23 22 21 21 20 20 20 20 19 18 17 16 16 15 14 14 14 15 16 16 17 17 18 18 19 18 18 18 18 19 20 22 24
17 16 15 14 13 13 15 17 18 17 15 14 15 15 15 14 12 11 11 10 12 16 19 24 31 31 24 16 15 15 15 18 20 23 25 27 27 26 24 23 22 22 22 22 22 23 23 24 24 24 24 23 22 21 20 20 20 20 20 20 19 18 17 17 17 16 15 15 16 16 16 17 18 18 19 20 20 19 19 19 18 18 18 20 22
19 19 18 16 14 12 12 14 15 15 14 12 11 12 12 12 12 12 13 14 15 15 16 22 28 27 20 15 16 16 15 16 17 17 18 18 17 18 19 20 20 20 21 22 22 23 24 24 24 23 22 21 20 20 20 20 20 20 20 20 19 18 18 18 18 17 17 17 17 17 17 17 18 19 20 20 21 21 20 20 19 18 18 18 19
Wind_Direction
252 255 256 258 259 260 264 267 269 272 277 282 287 290 286 287 291 285 269 261 259 258 257 254 252 252 253 253 254 256 257 259 261 262 263 265 267 269 272 274 276 276 276 276 275 276 276 277 277 278 277 277 276 274 273 271 269 269 270 272 274 276 277 277 277 276 276 276 277 276 277 278 278 278 279 280 282 284 285 286 286 285 285 285 285
250 252 255 257 259 260 261 263 265 268 274 279 283 286 287 281 279 278 271 263 260 259 258 258 256 253 250 249 251 254 258 260 261 260 260 261 262 263 266 268 269 269 271 272 274 275 276 277 278 279 280 280 279 277 275 273 271 269 268 267 267 269 272 274 274 276 277 277 277 278 279 280 281 281 281 280 280 281 282 284 284 283 283 283 283
248 251 254 258 261 263 263 263 264 267 272 276 279 281 281 277 272 269 265 258 256 258 261 262 262 260 256 252 251 252 255 257 257 257 257 257 258 259 260 262 263 265 266 268 271 274 275 276 278 280 280 279 277 277 276 276 275 273 271 268 266 266 267 268 269 272 274 276 277 279 280 281 282 284 284 284 284 284 283 283 284 284 284 283 282
252 256 260 263 266 268 270 270 270 270 270 272 273 273 273 273 271 268 264 258 253 254 259 263 266 266 264 261 257 254 253 253 253 253 254 253 253 254 256 258 259 261 262 263 265 267 270 272 274 275 275 274 273 272 272 273 273 273 271 269 268 268 269 270 272 274 276 277 279 280 282 283 283 283 283 283 283 283 282 281 281 281 282 282 282
259 263 265 267 269 272 274 275 274 273 272 270 268 266 268 271 271 269 265 261 255 254 257 261 265 266 267 265 261 255 251 249 249 250 250 250 251 252 253 255 257 259 259 259 259 259 259 261 263 265 266 266 266 266 267 270 272 273 272 270 268 268 270 273 275 277 278 279 281 283 285 286 286 286 285 283 282 281 280 279 279 278 278 277 278
264 267 270 272 273 275 276 276 275 274 272 270 267 265 265 268 269 268 265 263 261 261 262 263 264 265 266 266 262 256 251 248 247 247 249 250 250 252 253 255 257 257 258 258 258 257 255 254 254 255 257 258 259 260 262 265 269 272 272 270 268 268 269 271 273 276 278 280 281 283 285 286 286 286 286 285 284 282 281 280 278 277 276 275 274
266 269 272 274 276 277 277 275 272 270 268 266 265 263 262 264 265 264 263 263 265 266 267 267 265 263 263 263 261 257 252 252 250 247 248 251 252 253 255 257 258 257 258 259 258 256 255 254 253 252 253 255 257 259 260 261 264 266 267 267 268 268 270 272 274 276 277 278 280 281 282 283 283 284 284 283 283 283 282 281 280 278 276 274 273
267 269 270 273 276 278 278 277 272 266 263 261 260 259 259 261 262 262 262 264 267 269 270 270 267 264 261 259 257 255 254 253 251 248 247 250 253 256 258 259 260 259 258 258 257 255 255 255 255 255 256 257 258 259 260 262 263 263 264 264 265 266 268 271 273 274 276 277 278 279 279 279 279 280 280 280 280 280 280 280 280 279 278 276 274
267 268 269 271 273 276 278 278 276 272 267 263 260 258 258 260 262 263 265 266 267 268 269 269 268 266 263 259 255 255 256 256 253 249 246 247 251 257 260 261 261 260 258 257 256 255 255 256 257 259 262 265 265 263 261 261 261 262 263 263 264 265 268 271 272 273 275 276 278 279 279 279 278 278 278 278 279 279 279 279 279 278 278 277 277
265 266 268 269 271 273 275 275 276 276 274 271 268 264 261 261 263 265 266 268 269 269 269 267 265 265 263 261 257 256 258 258 255 252 252 254 255 258 262 263 262 262 260 258 256 255 256 257 259 262 265 268 269 265 262 261 260 260 261 262 264 267 270 273 274 275 276 277 279 279 279 279 279 278 277 277 278 279 280 280 280 279 279 278 278
264 264 265 267 268 270 272 272 272 272 273 274 274 272 270 268 268 268 268 269 268 268 268 266 264 264 263 260 257 256 257 255 253 255 259 259 258 261 266 266 264 265 262 256 256 259 260 261 264 265 266 267 266 263 261 261 262 262 263 264 266 269 272 275 277 278 278 279 279 279 280 279 279 279 279 278 277 278 279 280 280 280 280 280 279
266 266 266 266 267 268 269 270 270 270 270 270 271 272 272 273 272 271 270 269 266 265 265 264 264 266 266 262 256 253 253 251 253 258 260 258 259 265 270 268 267 269 264 254 253 258 262 266 269 269 269 268 267 264 263 265 266 267 269 270 271 273 276 278 279 280 280 280 280 279 279 279 279 278 278 278 278 278 279 279 280 280 280 280 280
268 268 269 269 269 268 268 269 269 270 270 269 268 268 269 270 271 271 271 270 268 266 265 264 263 263 266 267 260 254 252 251 254 260 263 264 266 269 270 268 267 269 266 259 257 261 265 269 273 273 272 272 271 270 269 270 271 273 274 276 277 278 279 280 281 281 281 280 280 279 278 278 278 277 277 277 277 278 278 278 279 279 279 279 280
267 268 269 270 271 272 271 271 271 271 271 270 269 267 267 268 269 270 270 270 269 269 267 265 263 261 262 264 262 258 255 253 255 260 263 266 268 268 268 267 266 266 265 265 265 267 270 272 274 274 273 272 271 270 270 270 271 272 273 275 277 278 278 279 279 278 278 278 278 278 278 278 278 278 278 278 277 277 278 278 278 279 279 279 279
268 269 271 272 274 274 275 274 273 273 271 269 267 266 266 268 269 270 270 269 268 268 267 266 264 262 260 259 259 258 255 254 256 259 262 265 265 265 266 266 265 263 263 264 266 268 271 274 275 275 273 271 269 269 269 270 271 272 274 275 275 276 276 276 276 277 278 279 280 280 281 281 280 280 280 280 279 278 278 279 279 279 279 279 279
271 272 274 275 276 276 276 276 275 274 272 270 268 267 267 268 270 271 271 270 269 267 266 264 263 261 259 257 258 258 256 256 257 259 262 264 263 262 263 264 265 265 265 266 268 270 271 271 272 272 271 269 268 268 270 272 274 275 276 276 276 276 276 277 278 279 280 281 282 283 284 284 284 283 283 282 282 281 280 280 280 280 280 279 279
273 274 275 276 275 275 275 275 275 274 273 272 270 270 270 271 272 272 272 270 269 266 265 263 261 259 258 257 257 259 259 259 260 260 261 262 261 260 260 262 265 268 269 270 272 273 272 270 268 266 265 265 266 268 270 272 274 274 274 274 274 275 276 278 279 281 282 283 285 286 287 287 287 286 285 285 284 283 283 282 281 281 281 280 279
273 275 276 276 275 274 274 273 273 273 273 273 272 272 273 273 273 273 272 270 268 265 263 262 260 258 257 256 256 259 262 262 261 260 259 258 257 256 258 262 266 269 270 270 273 274 274 272 270 268 267 267 268 269 271 272 273 273 273 273 273 275 277 279 281 282 283 285 287 289 290 290 289 288 287 286 285 285 284 283 282 282 281 280 279
272 273 274 275 274 274 273 272 271 271 271 271 272 272 272 273 273 273 272 271 268 265 263 261 260 258 257 257 256 257 260 261 260 259 258 255 253 254 257 262 265 267 268 270 273 275 275 274 273 272 272 272 273 273 273 273 273 273 273 274 276 277 280 282 283 284 285 287 290 291 292 292 291 290 288 287 286 285 284 283 282 281 281 280 279
270 271 271 272 272 272 272 271 271 270 270 270 270 270 270 270 271 271 270 268 266 264 262 261 260 258 257 257 256 255 256 257 257 258 258 253 250 252 255 259 262 264 266 269 272 274 275 274 273 273 273 274 274 274 274 274 274 275 276 277 278 281 284 287 287 287 287 289 290 291 292 292 291 290 289 287 285 284 283 283 282 281 281 280 279
268 269 269 270 271 271 272 272 272 271 271 270 269 269 269 269 268 268 267 265 263 261 260 260 259 259 256 255 255 256 258 257 254 258 260 253 248 250 254 257 260 263 266 268 270 272 273 273 273 273 274 274 274 275 275 276 277 278 279 280 281 284 289 293 292 291 291 291 292 292 293 292 291 290 288 286 285 283 282 281 280 279 279 278 278
268 269 269 270 271 271 271 272 272 272 272 271 270 269 268 268 267 265 265 264 262 259 258 257 259 260 257 253 254 256 258 256 253 255 257 253 249 253 259 262 263 264 265 267 269 270 271 271 272 273 274 275 275 275 276 277 279 280 282 283 284 286 292 295 295 294 294 293 293 293 292 291 290 288 287 285 284 283 281 280 279 278 277 278 279
268 268 269 269 270 270 270 270 271 271 271 271 270 269 268 267 266 264 263 262 260 258 256 254 255 256 256 255 254 254 255 256 254 253 253 253 254 257 262 264 264 263 265 267 268 269 270 271 272 273 274 274 275 276 277 279 281 282 283 285 286 289 294 296 296 295 295 294 293 292 290 289 287 286 285 283 282 281 280 279 278 278 278 279 281
267 267 268 268 268 268 268 268 268 268 268 268 268 268 267 265 264 262 261 260 258 258 256 253 251 251 253 254 255 255 255 255 254 252 251 250 251 255 259 260 260 262 265 267 268 269 270 272 273 274 274 274 275 276 279 281 283 284 285 287 288 292 295 296 296 295 294 292 291 289 287 286 285 283 282 281 281 280 280 279 279 279 280 282 283
266 266 267 267 267 267 267 267 267 267 267 267 267 266 265 264 262 261 260 258 257 255 255 254 251 250 250 248 248 249 246 243 244 248 249 246 247 250 254 256 258 261 264 266 267 269 270 271 272 274 274 274 275 278 281 283 285 286 287 288 290 293 295 295 294 293 291 290 288 287 285 284 283 281 281 280 280 280 280 280 281 282 283 285 286
266 266 266 265 265 265 265 265 266 266 266 266 266 265 264 263 262 261 259 258 257 255 254 254 253 252 250 245 242 242 240 237 240 246 247 246 247 250 251 253 256 260 263 265 267 268 270 271 272 272 272 273 275 278 281 284 286 286 287 289 291 292 293 293 291 290 288 287 286 285 283 282 281 281 281 281 281 281 281 282 283 284 285 286 286
267 266 266 265 265 265 265 265 265 265 265 265 264 263 262 261 261 260 259 258 257 256 254 253 252 252 252 249 243 242 243 243 245 249 252 253 255 257 257 257 259 261 264 265 266 268 270 271 270 268 268 271 274 277 282 286 288 288 290 291 292 292 291 289 288 287 286 285 284 283 281 281 280 280 280 280 281 281 282 283 284 285 286 286 287
269 269 268 267 266 266 266 265 265 265 264 264 263 262 261 260 259 258 257 256 256 255 255 254 251 249 249 250 248 246 245 246 248 251 254 257 259 261 261 261 261 262 263 263 265 268 268 267 265 264 266 270 275 280 285 289 290 291 292 291 291 290 288 287 286 286 285 283 282 281 280 279 279 279 280 280 281 282 284 285 285 286 286 288 290
273 272 271 270 269 268 267 266 265 264 263 263 262 262 261 260 258 256 255 255 255 254 253 252 251 249 247 248 249 248 248 248 250 252 254 257 258 259 259 259 259 260 261 263 265 265 264 263 263 264 268 275 280 284 287 289 290 290 290 289 288 286 285 285 285 284 282 281 280 280 280 280 281 281 281 282 283 284 285 285 286 288 290 292 293
276 276 275 274 272 271 270 268 267 266 264 262 261 260 260 259 257 256 255 254 254 253 252 252 252 250 248 248 249 249 249 249 250 252 253 255 255 256 255 256 257 259 261 263 264 262 262 263 265 269 275 280 282 285 287 289 289 289 287 286 285 285 285 285 283 281 280 281 282 282 282 283 283 283 284 284 285 286 287 288 291 293 294 294 293
277 276 275 275 274 273 271 269 268 266 264 262 261 259 258 257 255 254 253 252 251 250 249 248 250 252 251 250 249 249 250 250 251 251 251 252 252 253 253 255 257 259 261 263 262 260 260 264 270 275 278 280 283 286 289 289 288 286 285 284 284 284 284 282 281 281 282 283 284 284 284 284 284 285 285 285 286 288 290 292 294 295 294 293 293
275 275 274 274 274 273 271 270 268 265 263 261 259 258 256 255 253 252 250 249 247 245 241 238 239 243 247 249 250 249 249 249 251 251 251 251 251 251 251 254 257 259 259 260 259 257 259 266 272 275 276 281 285 288 288 288 286 285 285 284 284 282 281 280 281 283 284 285 286 286 285 285 285 286 287 289 290 292 294 295 296 295 294 294 294
277 277 276 276 276 276 275 273 269 266 263 260 259 257 256 254 251 250 248 246 244 242 240 237 234 233 235 239 244 246 246 247 249 251 251 251 251 252 254 256 259 259 257 254 252 254 261 267 270 272 278 284 287 286 285 286 286 285 284 283 281 280 280 281 283 284 286 286 285 284 284 286 288 290 292 294 295 297 297 297 296 295 293 292 291
278 278 277 277 278 279 280 280 276 271 265 260 258 257 257 255 252 250 248 246 243 240 239 237 235 233 231 231 233 236 239 242 244 247 250 252 252 253 252 252 253 253 251 248 249 254 261 265 268 274 282 285 283 281 283 285 285 284 282 280 279 279 280 282 284 285 285 283 281 283 287 291 294 296 297 298 299 300 299 297 295 293 291 291 294
280 280 279 279 280 281 283 285 285 280 271 263 258 257 256 255 254 251 248 246 243 241 238 236 234 234 232 230 229 231 233 236 239 242 247 249 248 247 246 246 246 247 246 247 250 256 261 265 271 278 282 279 276 279 283 283 282 280 278 277 278 279 281 283 284 282 279 278 283 289 294 298 300 301 302 303 303 301 299 296 294 292 293 297 302
286 286 285 285 285 286 287 288 288 284 277 266 259 256 255 254 253 251 248 245 242 240 238 236 234 232 232 231 230 231 231 232 235 239 244 247 247 247 245 243 243 244 246 248 253 259 264 270 275 277 275 272 274 279 281 280 278 275 274 275 278 280 282 282 278 273 273 281 290 296 300 304 306 307 307 306 304 300 297 296 296 297 301 306 308
292 291 291 290 289 289 290 290 287 284 278 268 259 255 255 254 252 249 246 243 241 239 237 235 233 232 231 230 230 230 231 231 232 235 240 245 246 247 245 244 245 248 251 255 259 264 267 270 271 270 268 269 273 276 277 276 274 272 273 277 279 280 278 272 265 267 277 288 295 301 306 311 314 314 312 309 304 299 299 301 303 306 310 313 314
296 297 298 298 297 295 293 291 286 281 275 267 259 254 252 251 249 247 244 242 239 238 236 235 233 231 230 230 230 230 230 230 231 233 237 242 245 248 249 250 252 254 256 259 261 263 264 265 264 264 264 267 271 273 273 272 270 271 275 278 277 273 265 256 258 270 282 291 300 306 312 319 323 321 315 308 301 299 302 307 310 312 315 318 321
306 310 310 309 306 302 298 292 286 278 269 261 254 250 248 246 245 244 243 240 237 236 235 234 232 230 229 229 228 229 229 229 230 233 237 241 245 248 250 251 252 253 255 256 257 258 258 259 259 260 262 265 268 269 269 268 269 272 275 274 268 258 249 249 258 273 283 294 305 312 317 327 334 332 323 310 301 301 305 309 313 315 319 324 327
319 321 319 317 313 308 303 298 290 277 264 255 251 247 243 241 240 239 237 235 233 232 232 231 229 227 227 226 226 226 226 225 224 228 234 240 244 246 247 248 249 250 251 252 252 252 253 255 256 258 261 263 264 265 265 266 269 271 269 261 251 243 242 247 258 272 285 298 310 317 321 331 343 347 342 327 308 302 306 312 315 317 324 330 330
326 325 325 326 323 316 310 308 303 283 262 253 250 246 239 235 234 234 233 230 227 226 226 226 224 221 221 222 223 223 223 221 221 223 228 234 240 243 246 247 247 248 249 248 248 249 251 253 256 259 260 260 260 260 262 264 266 263 254 245 239 236 238 246 257 272 287 301 314 321 325 332 346 356 0 358 344 322 313 314 314 317 326 331 328
329 331 334 337 337 328 313 305 303 290 267 255 249 242 234 229 227 229 230 229 226 223 223 221 218 214 212 210 209 208 209 213 217 220 223 228 234 239 243 245 246 247 248 248 248 250 252 254 256 258 258 256 256 257 260 260 257 248 240 236 234 233 236 246 257 270 287 302 315 324 328 331 342 356 6 12 10 358 339 322 314 314 323 328 326
333 338 341 345 348 343 324 302 294 284 265 252 245 236 230 227 227 228 229 227 224 223 219 215 214 209 201 194 194 196 198 201 209 215 219 222 226 231 237 242 245 246 247 249 250 252 253 255 257 256 253 251 252 254 254 250 242 235 234 233 231 231 237 246 255 268 285 301 314 324 329 333 340 350 1 10 14 12 5 351 333 319 317 321 324
336 343 346 349 354 356 346 322 303 285 260 244 236 230 227 227 230 231 229 225 223 221 216 211 210 205 196 192 195 202 202 201 206 212 215 219 223 228 235 242 245 246 247 249 250 253 256 258 256 251 247 246 248 246 242 236 231 230 232 231 230 232 239 245 254 267 284 299 311 321 328 334 339 345 352 1 10 13 11 6 356 340 324 316 316
342 349 351 352 358 4 3 352 331 308 277 252 238 230 225 225 227 228 226 222 219 217 212 207 203 201 197 195 198 207 211 212 215 218 221 223 226 230 236 241 244 247 249 251 253 256 257 254 248 243 240 241 239 234 229 226 227 230 231 230 231 234 240 245 254 266 282 297 309 318 324 330 337 343 348 353 0 6 9 9 6 358 345 330 318
352 358 359 358 1 9 12 7 356 336 302 260 240 233 228 225 223 222 220 217 214 212 209 204 200 200 199 196 195 203 216 221 223 225 227 229 231 233 237 242 245 249 253 255 255 253 248 241 236 234 233 230 226 223 222 224 227 230 231 231 233 236 240 246 253 264 278 293 305 314 320 326 333 341 346 349 352 357 1 5 6 3 358 349 336
356 1 3 3 4 11 16 16 12 4 351 284 226 222 223 223 222 218 215 213 210 207 204 202 200 199 197 195 195 204 215 223 227 229 230 232 234 237 240 243 247 251 254 253 246 237 230 227 225 224 221 219 218 218 221 224 227 230 232 233 234 236 239 244 251 261 274 288 299 309 316 322 329 337 342 344 347 350 354 358 1 2 0 357 351
357 360 5 7 10 14 20 23 25 31 48 68 76 82 101 138 189 204 206 207 205 201 201 202 199 193 188 189 197 207 218 226 230 230 230 231 234 238 241 245 248 249 246 236 223 217 216 217 215 213 213 213 215 218 222 226 229 231 233 234 236 236 238 243 250 259 270 280 290 301 310 318 325 333 337 339 341 346 348 351 354 358 359 358 356
11 7 7 11 16 22 27 31 36 46 64 73 72 70 74 77 79 102 154 186 195 196 197 198 194 187 183 187 200 213 228 238 239 238 238 238 240 243 244 243 240 232 220 210 208 209 210 209 208 208 211 214 217 221 226 229 232 233 235 236 237 237 240 245 251 258 266 275 284 294 303 312 320 327 332 334 336 341 344 346 348 352 355 356 357
24 22 19 18 22 31 37 40 44 52 64 74 75 76 81 84 87 89 93 113 153 175 186 192 190 185 184 195 214 229 244 248 247 247 245 242 239 237 231 220 209 203 201 203 206 207 206 205 206 209 212 216 221 226 230 233 235 236 236 237 238 240 243 248 253 258 264 271 280 288 297 305 313 320 327 330 332 335 339 341 343 347 350 353 354
22 25 26 26 30 38 46 50 52 55 62 71 81 89 92 93 95 96 95 99 114 132 152 173 183 187 196 214 226 230 234 234 234 235 233 225 217 210 201 194 193 199 204 207 206 204 204 205 208 212 216 221 226 230 233 235 237 238 239 240 241 243 245 249 254 259 263 269 275 283 291 299 307 314 320 325 328 330 333 335 338 342 346 348 351
Height
5747 5748 5749 5750 5751 5751 5751 5752 5752 5752 5752 5752 5753 5753 5752 5752 5752 5752 5752 5751 5751 5752 5752 5753 5753 5754 5754 5754 5755 5755 5755 5756 5756 5757 5757 5757 5757 5757 5758 5758 5758 5759 5759 5759 5759 5759 5759 5759 5759 5759 5759 5759 5759 5759 5759 5759 5759 5758 5758 5758 5758 5758 5758 5758 5758 5757 5757 5757 5757 5757 5757 5756 5756 5756 5756 5756 5755 5755 5755 5755 5755 5755 5755 5754 5754
5745 5746 5747 5748 5749 5749 5749 5750 5750 5750 5750 5750 5750 5750 5750 5750 5750 5749 5749 5749 5750 5750 5750 5750 5751 5751 5751 5752 5752 5752 5753 5753 5754 5754 5754 5754 5754 5755 5755 5755 5756 5756 5756 5757 5757 5757 5757 5757 5757 5757 5756 5756 5756 5756 5757 5757 5757 5757 5756 5756 5756 5756 5756 5755 5755 5755 5755 5755 5755 5755 5755 5754 5754 5754 5754 5754 5754 5754 5753 5753 5753 5753 5753 5752 5752
5743 5744 5746 5747 5747 5747 5747 5747 5748 5748 5747 5747 5747 5747 5748 5748 5747 5747 5747 5747 5748 5748 5748 5749 5749 5749 5749 5749 5750 5750 5750 5750 5751 5751 5751 5751 5752 5752 5752 5753 5753 5754 5754 5754 5754 5754 5754 5754 5754 5754 5754 5754 5754 5754 5754 5754 5754 5754 5754 5754 5754 5753 5753 5753 5753 5753 5753 5753 5753 5753 5753 5753 5752 5752 5752 5752 5752 5752 5751 5751 5751 5750 5750 5750 5750
5741 5742 5743 5744 5744 5744 5744 5744 5745 5745 5745 5745 5745 5745 5745 5745 5745 5745 5745 5745 5745 5746 5746 5746 5746 5746 5746 5746 5747 5747 5747 5748 5748 5748 5748 5749 5749 5749 5750 5750 5751 5752 5752 5752 5752 5752 5752 5752 5752 5752 5752 5752 5752 5752 5752 5752 5752 5752 5752 5752 5752 5751 5751 5751 5751 5751 5751 5751 5751 5751 5751 5750 5750 5750 5750 5750 5749 5749 5749 5748 5748 5748 5748 5747 5747
5738 5738 5739 5740 5741 5741 5741 5741 5741 5742 5742 5742 5742 5742 5742 5742 5742 5743 5743 5743 5743 5743 5743 5744 5744 5743 5743 5743 5744 5744 5745 5745 5746 5746 5746 5746 5746 5747 5747 5748 5749 5749 5750 5750 5750 5750 5750 5750 5750 5750 5750 5750 5750 5750 5750 5750 5750 5750 5749 5749 5749 5749 5749 5749 5749 5749 5749 5749 5749 5748 5748 5748 5748 5748 5747 5747 5747 5746 5746 5745 5745 5745 5744 5744 5744
5735 5735 5735 5736 5737 5738 5738 5738 5738 5739 5739 5739 5739 5740 5740 5740 5740 5740 5741 5741 5741 5741 5741 5741 5741 5741 5740 5740 5741 5741 5742 5742 5743 5743 5743 5743 5744 5744 5745 5745 5746 5747 5747 5747 5747 5748 5748 5747 5747 5747 5747 5747 5747 5748 5748 5747 5747 5747 5747 5747 5746 5746 5746 5746 5746 5746 5746 5746 5746 5745 5745 5745 5745 5744 5744 5743 5743 5742 5742 5742 5742 5741 5741 5741 5740
5732 5732 5732 5733 5733 5734 5735 5736 5736 5736 5736 5736 5737 5737 5738 5738 5738 5738 5738 5738 5739 5739 5739 5739 5739 5738 5738 5738 5738 5739 5739 5740 5740 5741 5741 5741 5741 5742 5742 5742 5743 5743 5744 5744 5744 5745 5745 5745 5745 5745 5745 5745 5745 5745 5745 5745 5745 5744 5744 5744 5743 5743 5743 5743 5742 5742 5742 5742 5742 5742 5742 5741 5741 5741 5740 5739 5738 5738 5737 5737 5737 5737 5737 5736 5736
5729 5729 5729 5730 5731 5731 5732 5733 5733 5733 5733 5734 5734 5735 5735 5735 5735 5736 5735 5736 5736 5736 5736 5736 5736 5736 5736 5736 5736 5736 5737 5737 5737 5737 5738 5738 5738 5739 5740 5740 5740 5740 5740 5741 5741 5741 5741 5742 5742 5742 5742 5742 5742 5742 5742 5741 5742 5741 5741 5741 5740 5740 5740 5739 5739 5739 5738 5738 5738 5738 5737 5737 5737 5737 5736 5735 5734 5733 5733 5732 5732 5732 5732 5731 5731
5725 5726 5726 5727 5728 5728 5729 5729 5729 5730 5730 5731 5732 5732 5732 5732 5732 5732 5732 5732 5732 5733 5733 5733 5733 5733 5733 5733 5733 5733 5733 5733 5733 5734 5734 5735 5735 5736 5736 5737 5737 5737 5737 5737 5737 5737 5737 5738 5739 5739 5739 5739 5739 5739 5739 5738 5738 5738 5738 5737 5737 5736 5736 5736 5735 5734 5734 5734 5733 5733 5733 5732 5732 5733 5732 5731 5729 5728 5728 5727 5727 5726 5726 5725 5725
5722 5723 5723 5724 5725 5725 5726 5726 5726 5726 5727 5727 5728 5729 5729 5729 5729 5729 5729 5729 5729 5729 5729 5729 5729 5730 5729 5730 5730 5730 5730 5730 5730 5730 5730 5731 5732 5732 5732 5733 5733 5733 5733 5733 5733 5733 5734 5734 5735 5736 5736 5736 5736 5736 5735 5735 5735 5734 5734 5734 5733 5733 5733 5732 5731 5730 5730 5729 5728 5728 5728 5727 5727 5727 5727 5726 5724 5722 5722 5721 5721 5721 5720 5719 5718
5719 5720 5720 5721 5722 5722 5722 5722 5723 5723 5723 5724 5724 5724 5724 5725 5725 5725 5725 5726 5726 5725 5726 5726 5726 5726 5726 5725 5726 5726 5726 5726 5726 5727 5727 5728 5727 5727 5727 5729 5729 5729 5729 5729 5729 5730 5730 5730 5731 5731 5732 5732 5732 5732 5732 5731 5731 5730 5730 5730 5729 5729 5728 5727 5727 5726 5725 5724 5723 5723 5723 5722 5722 5722 5722 5721 5719 5717 5716 5715 5715 5715 5714 5713 5712
5715 5715 5716 5717 5718 5718 5719 5718 5718 5719 5719 5720 5720 5720 5720 5720 5720 5720 5721 5721 5722 5721 5721 5722 5722 5722 5722 5721 5721 5722 5722 5722 5722 5723 5724 5724 5723 5723 5723 5724 5724 5725 5725 5725 5725 5725 5725 5725 5726 5726 5727 5727 5727 5727 5727 5727 5727 5726 5726 5725 5725 5724 5724 5723 5722 5721 5720 5720 5719 5718 5718 5717 5716 5716 5716 5715 5714 5712 5711 5709 5709 5709 5708 5707 5706
5710 5710 5711 5712 5712 5713 5714 5714 5714 5714 5715 5715 5716 5716 5716 5715 5715 5715 5716 5716 5717 5717 5717 5717 5718 5718 5718 5717 5718 5718 5718 5717 5718 5718 5719 5719 5719 5719 5720 5720 5720 5721 5721 5721 5721 5721 5721 5721 5721 5722 5722 5722 5723 5723 5722 5722 5722 5721 5721 5720 5720 5719 5719 5718 5717 5716 5716 5715 5714 5713 5713 5712 5710 5710 5710 5709 5708 5707 5705 5704 5703 5702 5701 5700 5699
5705 5705 5706 5706 5707 5707 5708 5708 5709 5709 5709 5710 5710 5710 5711 5710 5710 5710 5710 5711 5711 5712 5712 5713 5713 5714 5714 5713 5713 5714 5713 5713 5713 5713 5713 5713 5714 5714 5715 5715 5715 5716 5716 5716 5717 5716 5716 5716 5717 5717 5717 5717 5717 5717 5717 5717 5716 5716 5716 5715 5715 5714 5714 5713 5712 5712 5711 5710 5709 5708 5708 5706 5705 5704 5704 5703 5702 5700 5699 5697 5697 5695 5695 5694 5692
5698 5699 5700 5700 5701 5701 5701 5702 5702 5703 5703 5704 5704 5704 5705 5705 5705 5705 5705 5705 5706 5706 5706 5707 5708 5708 5709 5709 5709 5708 5708 5708 5707 5707 5707 5708 5708 5708 5709 5710 5710 5711 5711 5711 5712 5712 5712 5712 5712 5712 5712 5712 5712 5712 5712 5711 5711 5711 5710 5710 5709 5709 5708 5708 5707 5706 5705 5705 5704 5702 5702 5701 5699 5698 5697 5696 5695 5694 5692 5691 5689 5688 5687 5686 5685
5691 5692 5693 5694 5694 5695 5695 5695 5696 5696 5697 5698 5698 5698 5698 5699 5700 5700 5700 5700 5700 5700 5700 5701 5702 5703 5703 5704 5704 5704 5703 5703 5702 5701 5701 5702 5702 5703 5704 5704 5705 5705 5705 5706 5706 5707 5707 5707 5707 5707 5707 5707 5707 5707 5706 5706 5706 5705 5705 5704 5704 5703 5703 5702 5701 5700 5700 5699 5698 5697 5696 5694 5693 5691 5690 5689 5687 5686 5685 5684 5682 5681 5680 5679 5678
5684 5685 5686 5687 5687 5688 5688 5689 5689 5689 5690 5691 5691 5691 5692 5692 5693 5694 5694 5694 5694 5694 5694 5695 5696 5697 5697 5699 5700 5699 5697 5697 5696 5696 5696 5696 5697 5697 5698 5699 5699 5699 5699 5700 5701 5701 5702 5702 5703 5703 5703 5702 5702 5702 5701 5701 5701 5701 5700 5699 5699 5698 5697 5696 5695 5694 5694 5693 5692 5691 5689 5688 5686 5685 5684 5682 5680 5679 5677 5676 5675 5673 5672 5671 5670
5677 5677 5678 5679 5679 5680 5681 5681 5682 5682 5683 5683 5684 5684 5684 5685 5685 5686 5687 5687 5687 5688 5688 5688 5689 5690 5691 5692 5694 5693 5690 5689 5689 5690 5690 5691 5691 5692 5692 5693 5693 5694 5694 5695 5696 5696 5697 5697 5697 5697 5697 5697 5697 5697 5696 5696 5696 5695 5694 5694 5693 5692 5691 5690 5689 5688 5687 5686 5685 5684 5683 5681 5680 5678 5677 5675 5673 5671 5670 5668 5666 5665 5663 5662 5661
5669 5669 5670 5670 5670 5671 5672 5673 5674 5675 5675 5675 5676 5676 5677 5677 5678 5678 5679 5679 5680 5681 5681 5682 5682 5683 5684 5686 5687 5686 5684 5683 5684 5684 5684 5685 5685 5685 5686 5687 5687 5688 5689 5690 5690 5691 5691 5691 5691 5691 5691 5691 5691 5691 5691 5690 5690 5689 5688 5688 5687 5687 5686 5684 5683 5682 5681 5680 5679 5677 5676 5674 5672 5671 5669 5668 5666 5664 5662 5660 5658 5656 5655 5654 5652
5661 5661 5662 5661 5662 5662 5663 5664 5665 5666 5666 5667 5668 5668 5669 5669 5670 5670 5671 5671 5672 5673 5674 5675 5675 5676 5677 5679 5679 5679 5678 5678 5679 5679 5679 5679 5678 5678 5680 5681 5682 5683 5684 5684 5685 5685 5685 5685 5685 5685 5685 5685 5685 5685 5685 5684 5684 5683 5682 5681 5681 5680 5680 5679 5677 5676 5674 5673 5672 5670 5668 5667 5665 5663 5662 5660 5659 5657 5655 5652 5650 5648 5647 5646 5644
5653 5653 5653 5653 5653 5653 5654 5654 5655 5656 5657 5658 5659 5659 5660 5661 5662 5663 5663 5664 5665 5666 5667 5667 5668 5669 5671 5672 5672 5673 5673 5674 5675 5675 5673 5672 5672 5673 5674 5675 5676 5677 5678 5678 5679 5679 5679 5679 5679 5679 5679 5679 5679 5679 5679 5678 5678 5677 5676 5675 5674 5674 5673 5672 5670 5669 5667 5666 5664 5663 5661 5659 5658 5656 5654 5652 5651 5649 5647 5645 5643 5641 5640 5638 5636
5644 5644 5644 5644 5645 5645 5645 5645 5646 5647 5647 5648 5649 5651 5651 5652 5653 5654 5655 5656 5657 5658 5659 5660 5661 5662 5664 5665 5667 5668 5668 5668 5671 5671 5668 5666 5667 5667 5668 5670 5671 5671 5672 5672 5673 5673 5673 5673 5674 5674 5674 5674 5674 5673 5673 5672 5672 5671 5670 5669 5668 5667 5666 5665 5664 5662 5660 5659 5657 5655 5653 5652 5650 5648 5646 5644 5642 5641 5639 5637 5635 5634 5632 5630 5629
5635 5636 5636 5635 5636 5636 5636 5636 5637 5637 5638 5638 5640 5641 5643 5644 5645 5646 5647 5648 5650 5651 5652 5654 5655 5655 5657 5658 5660 5662 5662 5662 5663 5664 5662 5661 5662 5662 5663 5664 5664 5664 5665 5666 5666 5667 5667 5667 5668 5668 5668 5668 5668 5668 5667 5667 5666 5665 5664 5663 5662 5661 5659 5658 5657 5655 5653 5651 5649 5647 5646 5644 5642 5640 5638 5636 5634 5632 5630 5629 5627 5626 5625 5623 5622
5626 5626 5626 5626 5626 5626 5626 5627 5627 5628 5629 5629 5630 5632 5633 5635 5636 5638 5639 5641 5642 5644 5645 5647 5648 5649 5650 5652 5654 5655 5655 5654 5654 5654 5654 5655 5656 5657 5658 5658 5658 5658 5659 5660 5660 5660 5660 5661 5661 5662 5662 5662 5662 5661 5661 5661 5660 5659 5658 5657 5655 5654 5652 5651 5649 5647 5645 5643 5641 5639 5638 5636 5634 5632 5630 5628 5626 5624 5622 5621 5620 5619 5617 5616 5614
5617 5617 5617 5617 5617 5617 5617 5617 5617 5618 5619 5620 5621 5622 5624 5625 5627 5629 5631 5633 5634 5636 5637 5638 5640 5641 5643 5646 5647 5647 5647 5646 5646 5646 5646 5647 5649 5650 5651 5651 5652 5652 5653 5653 5653 5653 5654 5655 5655 5655 5655 5655 5655 5655 5655 5654 5654 5653 5651 5650 5649 5647 5645 5643 5641 5639 5637 5635 5634 5632 5630 5628 5626 5624 5622 5620 5619 5617 5615 5614 5613 5612 5610 5609 5607
5607 5607 5607 5607 5607 5607 5607 5608 5608 5608 5609 5610 5611 5612 5614 5615 5617 5619 5622 5624 5625 5627 5629 5630 5631 5633 5635 5637 5639 5639 5639 5638 5638 5639 5639 5640 5642 5643 5644 5645 5645 5646 5646 5646 5646 5647 5648 5648 5649 5649 5649 5649 5649 5649 5649 5648 5647 5646 5645 5643 5641 5640 5638 5636 5634 5632 5629 5627 5626 5624 5622 5620 5618 5616 5615 5613 5612 5610 5609 5608 5607 5605 5603 5602 5600
5597 5597 5597 5597 5597 5597 5597 5597 5598 5598 5598 5599 5600 5602 5603 5605 5607 5609 5612 5614 5616 5617 5619 5622 5623 5625 5626 5628 5630 5631 5630 5630 5630 5630 5631 5633 5634 5636 5637 5638 5638 5639 5639 5639 5640 5641 5641 5641 5642 5642 5642 5643 5643 5643 5642 5641 5640 5639 5637 5635 5634 5632 5630 5628 5626 5624 5622 5620 5619 5617 5615 5613 5612 5610 5609 5607 5606 5604 5603 5602 5601 5599 5596 5594 5593
5586 5586 5586 5585 5586 5585 5585 5586 5586 5587 5587 5588 5588 5590 5592 5594 5597 5599 5600 5603 5606 5608 5610 5612 5615 5617 5618 5619 5620 5621 5621 5622 5623 5623 5624 5626 5627 5628 5630 5631 5631 5632 5632 5633 5633 5634 5634 5635 5635 5636 5636 5637 5637 5636 5635 5634 5633 5631 5629 5628 5626 5624 5622 5620 5618 5617 5615 5614 5612 5611 5609 5607 5606 5605 5603 5602 5600 5598 5597 5595 5594 5592 5590 5588 5586
5575 5575 5574 5574 5574 5574 5574 5574 5574 5575 5575 5576 5576 5577 5580 5583 5586 5587 5589 5592 5595 5598 5601 5603 5605 5607 5609 5610 5611 5612 5613 5615 5616 5617 5618 5619 5620 5621 5623 5624 5624 5625 5626 5626 5627 5628 5628 5628 5629 5630 5630 5630 5630 5629 5628 5627 5626 5624 5622 5620 5619 5617 5615 5613 5612 5611 5609 5608 5607 5605 5604 5602 5601 5599 5598 5596 5594 5592 5591 5589 5587 5585 5583 5581 5579
5565 5564 5563 5562 5562 5562 5562 5562 5562 5562 5563 5564 5565 5565 5568 5572 5574 5575 5578 5582 5585 5587 5590 5593 5595 5598 5600 5601 5602 5603 5605 5607 5608 5610 5612 5612 5613 5615 5617 5617 5618 5619 5620 5621 5621 5621 5622 5622 5623 5624 5624 5624 5624 5623 5622 5620 5619 5617 5615 5613 5611 5610 5608 5607 5606 5605 5604 5603 5602 5600 5599 5597 5596 5594 5592 5591 5589 5587 5585 5583 5581 5579 5577 5575 5572
5555 5555 5553 5551 5550 5549 5549 5549 5550 5550 5551 5552 5552 5553 5556 5560 5563 5564 5567 5572 5575 5577 5581 5585 5587 5590 5592 5593 5594 5596 5597 5599 5600 5602 5604 5605 5607 5610 5611 5611 5612 5613 5614 5615 5615 5615 5616 5617 5617 5618 5618 5618 5617 5616 5615 5614 5612 5610 5609 5607 5605 5604 5603 5602 5601 5600 5599 5598 5597 5595 5594 5592 5591 5589 5587 5585 5584 5582 5580 5578 5576 5573 5570 5568 5565
5546 5545 5544 5542 5540 5538 5537 5537 5537 5537 5538 5539 5539 5540 5543 5547 5551 5552 5556 5561 5564 5567 5571 5576 5580 5583 5584 5585 5586 5588 5590 5591 5593 5595 5597 5599 5601 5602 5603 5604 5606 5607 5607 5608 5609 5609 5610 5611 5611 5612 5612 5612 5611 5610 5609 5607 5606 5604 5602 5601 5600 5599 5598 5597 5596 5596 5595 5594 5592 5591 5590 5588 5587 5585 5583 5581 5579 5577 5574 5572 5569 5566 5564 5562 5560
5538 5537 5535 5534 5531 5529 5527 5525 5524 5525 5525 5526 5527 5528 5530 5534 5538 5540 5543 5548 5553 5556 5560 5565 5569 5573 5575 5576 5579 5581 5583 5584 5586 5588 5590 5592 5593 5595 5596 5598 5599 5600 5601 5601 5602 5603 5604 5605 5606 5606 5606 5606 5605 5604 5603 5602 5600 5598 5597 5596 5595 5594 5593 5593 5592 5592 5590 5589 5588 5587 5586 5585 5583 5581 5578 5576 5574 5571 5569 5566 5563 5560 5558 5557 5555
5531 5530 5528 5526 5524 5522 5520 5517 5515 5514 5514 5515 5517 5518 5520 5523 5526 5529 5532 5536 5540 5545 5549 5554 5558 5561 5564 5568 5571 5573 5574 5577 5580 5582 5584 5585 5586 5587 5589 5590 5592 5593 5594 5595 5596 5598 5599 5600 5600 5601 5601 5600 5600 5599 5598 5597 5595 5594 5593 5592 5591 5590 5590 5589 5589 5588 5587 5586 5585 5584 5583 5581 5579 5576 5574 5571 5569 5566 5562 5560 5557 5555 5554 5553 5551
5525 5523 5522 5520 5518 5516 5514 5511 5508 5507 5506 5507 5508 5510 5511 5513 5515 5518 5521 5524 5529 5533 5538 5542 5546 5550 5554 5558 5561 5563 5566 5569 5572 5575 5577 5578 5579 5580 5581 5582 5584 5586 5587 5589 5591 5592 5593 5594 5595 5595 5595 5595 5595 5594 5593 5592 5591 5589 5588 5588 5587 5587 5586 5586 5585 5585 5584 5584 5583 5582 5580 5578 5575 5572 5569 5566 5563 5560 5557 5555 5553 5552 5551 5550 5548
5519 5518 5516 5514 5512 5510 5508 5506 5503 5501 5501 5501 5502 5503 5504 5506 5507 5509 5511 5515 5518 5522 5526 5531 5535 5539 5543 5548 5551 5554 5558 5561 5564 5568 5571 5571 5571 5572 5574 5576 5578 5580 5582 5584 5585 5586 5587 5588 5589 5590 5590 5590 5590 5589 5588 5588 5586 5585 5585 5584 5584 5583 5583 5582 5582 5582 5582 5581 5580 5579 5577 5575 5571 5568 5564 5561 5557 5555 5553 5551 5550 5549 5548 5547 5545
5515 5513 5511 5509 5507 5505 5503 5500 5498 5496 5495 5495 5495 5496 5498 5499 5501 5502 5504 5506 5509 5512 5516 5520 5525 5529 5534 5539 5542 5546 5550 5554 5557 5562 5564 5563 5562 5564 5567 5570 5573 5574 5576 5578 5579 5581 5582 5583 5584 5585 5585 5585 5585 5585 5584 5583 5582 5581 5581 5581 5580 5580 5580 5580 5580 5580 5580 5579 5578 5576 5574 5571 5567 5563 5559 5555 5553 5551 5550 5549 5547 5546 5545 5544 5542
5511 5509 5507 5505 5502 5500 5497 5494 5492 5490 5489 5489 5489 5490 5492 5494 5495 5497 5498 5500 5503 5505 5508 5511 5515 5520 5525 5530 5534 5538 5542 5547 5551 5554 5556 5556 5556 5559 5562 5565 5567 5569 5571 5572 5574 5575 5577 5578 5579 5579 5580 5580 5580 5580 5579 5579 5578 5578 5577 5577 5577 5577 5577 5577 5578 5578 5577 5577 5575 5574 5572 5568 5564 5559 5555 5551 5550 5548 5547 5546 5545 5544 5542 5541 5540
5507 5505 5503 5500 5497 5494 5491 5488 5485 5483 5482 5482 5483 5484 5486 5488 5490 5492 5494 5496 5498 5500 5502 5504 5508 5512 5516 5521 5526 5530 5534 5540 5545 5549 5551 5551 5552 5555 5557 5559 5561 5563 5565 5567 5569 5570 5571 5572 5573 5574 5575 5575 5575 5575 5575 5574 5574 5574 5574 5574 5574 5574 5575 5575 5575 5575 5575 5574 5573 5571 5569 5566 5561 5556 5552 5549 5547 5546 5545 5544 5543 5541 5540 5538 5537
5504 5502 5499 5496 5492 5488 5484 5481 5478 5476 5476 5476 5477 5479 5481 5483 5486 5488 5490 5491 5493 5495 5497 5499 5503 5506 5510 5513 5518 5522 5527 5534 5540 5544 5545 5546 5547 5549 5552 5554 5556 5557 5559 5561 5563 5564 5565 5567 5568 5569 5569 5570 5570 5570 5570 5570 5570 5570 5570 5571 5571 5572 5572 5573 5573 5573 5573 5572 5570 5568 5566 5564 5560 5555 5550 5547 5545 5544 5543 5542 5541 5539 5538 5537 5535
5501 5499 5496 5492 5488 5483 5480 5477 5474 5473 5472 5472 5473 5474 5476 5478 5481 5483 5485 5487 5489 5491 5493 5495 5498 5501 5504 5507 5512 5517 5522 5528 5533 5536 5538 5540 5542 5544 5546 5548 5550 5552 5554 5555 5557 5558 5560 5562 5563 5564 5564 5565 5565 5566 5566 5566 5566 5567 5567 5568 5569 5569 5570 5570 5571 5571 5570 5569 5567 5566 5564 5561 5558 5554 5550 5546 5543 5542 5541 5540 5539 5538 5536 5535 5534
5499 5497 5493 5489 5485 5480 5477 5475 5473 5471 5470 5470 5470 5471 5473 5475 5477 5479 5480 5483 5485 5487 5489 5492 5495 5497 5500 5505 5510 5514 5518 5522 5526 5528 5531 5534 5537 5539 5541 5542 5544 5546 5548 5550 5551 5553 5555 5557 5558 5559 5559 5560 5561 5561 5562 5562 5563 5564 5565 5565 5566 5567 5567 5568 5568 5568 5567 5566 5565 5563 5562 5559 5557 5553 5549 5546 5543 5541 5539 5538 5537 5536 5535 5534 5533
5498 5495 5492 5488 5483 5479 5475 5473 5471 5470 5469 5469 5469 5469 5471 5472 5474 5475 5477 5479 5481 5483 5486 5489 5492 5494 5498 5503 5508 5511 5514 5518 5521 5523 5526 5529 5533 5534 5535 5537 5539 5541 5543 5545 5546 5548 5550 5552 5553 5554 5554 5555 5556 5557 5558 5559 5560 5561 5562 5563 5564 5564 5565 5565 5565 5565 5564 5563 5562 5561 5559 5557 5555 5552 5549 5546 5543 5540 5538 5537 5535 5534 5534 5532 5531
5496 5494 5490 5487 5483 5478 5474 5471 5470 5469 5468 5467 5468 5468 5469 5470 5471 5472 5474 5476 5478 5480 5483 5486 5490 5493 5497 5501 5505 5508 5511 5514 5517 5519 5522 5525 5527 5529 5531 5533 5534 5536 5538 5540 5542 5544 5546 5547 5548 5549 5550 5551 5552 5553 5554 5556 5557 5558 5559 5560 5561 5562 5562 5562 5563 5562 5562 5561 5560 5559 5557 5555 5553 5551 5548 5546 5543 5540 5538 5536 5534 5533 5532 5531 5530
5496 5493 5490 5487 5483 5479 5475 5471 5469 5467 5466 5466 5466 5466 5467 5468 5469 5470 5471 5473 5475 5478 5481 5484 5488 5492 5495 5499 5503 5506 5508 5511 5513 5516 5518 5520 5522 5524 5527 5528 5530 5532 5534 5536 5537 5539 5541 5542 5543 5544 5546 5547 5548 5550 5552 5553 5554 5556 5556 5557 5558 5559 5559 5560 5560 5559 5559 5558 5557 5556 5555 5554 5552 5550 5547 5545 5543 5540 5538 5536 5534 5532 5530 5529 5528
5495 5493 5490 5486 5483 5479 5476 5472 5469 5466 5465 5464 5464 5464 5465 5466 5467 5468 5469 5471 5473 5475 5478 5482 5485 5488 5492 5497 5501 5504 5506 5508 5510 5512 5514 5516 5518 5521 5523 5525 5527 5529 5530 5532 5533 5534 5536 5537 5539 5541 5542 5544 5545 5547 5549 5551 5552 5553 5554 5555 5555 5556 5557 5557 5557 5557 5556 5556 5555 5554 5553 5552 5550 5548 5546 5544 5542 5540 5538 5536 5534 5532 5530 5528 5526
5494 5492 5490 5487 5483 5480 5477 5473 5469 5465 5463 5462 5462 5463 5464 5465 5466 5467 5468 5470 5472 5474 5477 5480 5483 5487 5491 5496 5500 5502 5505 5506 5508 5509 5511 5513 5515 5517 5520 5522 5524 5525 5527 5528 5529 5530 5531 5533 5535 5537 5539 5541 5543 5545 5547 5548 5549 5550 5551 5552 5552 5553 5554 5554 5554 5554 5554 5553 5553 5552 5551 5550 5548 5547 5545 5543 5541 5540 5538 5535 5533 5531 5529 5527 5525
5494 5492 5490 5487 5484 5481 5478 5475 5471 5468 5465 5464 5464 5464 5464 5465 5465 5466 5467 5469 5471 5474 5476 5479 5483 5487 5492 5496 5498 5501 5503 5505 5506 5508 5509 5511 5513 5515 5518 5519 5520 5521 5523 5524 5525 5526 5528 5530 5532 5534 5537 5539 5541 5543 5544 5545 5546 5547 5548 5549 5550 5550 5551 5551 5551 5551 5551 5551 5550 5550 5549 5548 5546 5545 5543 5542 5540 5539 5537 5535 5533 5531 5529 5526 5524
5494 5492 5490 5488 5485 5483 5480 5477 5475 5472 5470 5469 5468 5467 5467 5467 5467 5468 5468 5469 5471 5474 5477 5480 5483 5488 5492 5495 5498 5500 5501 5503 5504 5506 5508 5509 5511 5513 5514 5515 5516 5518 5519 5521 5522 5524 5526 5528 5530 5532 5535 5537 5539 5540 5541 5543 5544 5545 5545 5546 5547 5547 5548 5548 5549 5549 5549 5548 5548 5547 5547 5546 5544 5543 5542 5540 5539 5537 5536 5534 5532 5530 5528 5526 5523
5495 5493 5491 5488 5486 5484 5482 5480 5478 5476 5475 5474 5473 5472 5472 5472 5471 5471 5471 5471 5473 5475 5478 5481 5485 5489 5493 5495 5497 5499 5500 5501 5503 5504 5505 5506 5508 5509 5510 5512 5513 5515 5517 5518 5520 5522 5525 5527 5529 5531 5533 5535 5536 5538 5539 5540 5541 5542 5543 5543 5544 5544 5545 5545 5546 5546 5546 5546 5546 5545 5544 5543 5542 5541 5540 5538 5537 5536 5534 5533 5531 5529 5527 5525 5523
5496 5494 5492 5490 5488 5486 5484 5482 5481 5479 5478 5478 5477 5477 5477 5476 5476 5476 5476 5477 5477 5479 5481 5484 5488 5492 5494 5496 5498 5499 5500 5501 5502 5502 5503 5504 5505 5507 5508 5510 5512 5514 5515 5517 5519 5521 5523 5525 5528 5530 5531 5533 5534 5536 5537 5538 5539 5539 5540 5541 5541 5542 5542 5543 5543 5543 5543 5543 5543 5543 5542 5541 5540 5539 5538 5536 5535 5534 5533 5531 5530 5528 5526 5525 5523